Content
SEND FEEDBACK

Daily
Averages
Monthly
Summary
United States of America

BUTTE - MOULTON RESERVOIR, MONTANA


Home > North America > United States > Montana
Elevation: 6700 feet     Latitude: 46 05N     Longitude: 112 30W

WEATHER
 
SELECT A DAY
Number of Records: 193,349;   Date Range: 1/1/95 - 12/18/14
 
SHARE

PRINT THIS DATA

[ ← Previous Day ]
WEATHER ALMANAC - JANUARY 31, 2013
[ Next Day → ]
[ °C ]   °F
Weather ElementAverageHighLow
Temperature34.4 °F37.9 °F (2:53 pm)30.9 °F (8:53 pm)
Dewpoint24.3 °F27 °F (3:53 pm)21 °F (3:53 am)
Humidity66.8 %82 % (8:53 pm)59 % (6:53 am)
Barometer30.14 in30.19 in (11:53 am)30.11 in (1:53 am)
Wind Speed5.3 mph11.5 mph (3:53 am)
Wind Gust17.3 mph (7:53 am)
Weather ElementAverage
Visibility10 mi
Wind DirectionSW (223.9 °)

Weather ElementTotal
Precipitation---
Heating Degree Days30.6 (Base 65)
Averaged from 23 records on January 31, 2013
WEATHER CONDITIONS BREAKOUT
WIND DIRECTION BREAKOUT
WEATHER BY HOUR - JANUARY 31, 2013
[ °C ]   °F
Local TimeTemperatureDewpointHumidityBarometerVisibilityWind DirectionWind SpeedGust SpeedPrecipitationEventsConditions
1:53 AM33.1 °F21.9 °F64 %30.11 in10.0 miWSW (250°)5.8 mphOvercast
2:53 AM33.1 °F21.9 °F64 %30.12 in10.0 miWNW (290°)5.8 mphOvercast
3:53 AM33.1 °F21.0 °F61 %30.13 in10.0 miWNW (300°)11.5 mphOvercast
4:53 AM33.1 °F21.9 °F64 %30.14 in10.0 miWNW (290°)6.9 mphOvercast
5:53 AM33.1 °F21.0 °F61 %30.14 in10.0 miNW (320°)5.8 mphOvercast
6:53 AM34.0 °F21.0 °F59 %30.14 in10.0 miNW (310°)8.1 mph0.00 inOvercast
7:53 AM34.0 °F23.0 °F64 %30.15 in10.0 miWest (280°)11.5 mph17.3 mph0.00 inOvercast
8:53 AM33.1 °F24.1 °F70 %30.17 in10.0 miSE (130°)4.6 mph0.00 inOvercast
9:53 AM34.0 °F24.1 °F67 %30.17 in10.0 miWest (270°)6.9 mphOvercast
10:53 AM36.0 °F24.1 °F62 %30.18 in10.0 miWest (270°)6.9 mphOvercast
11:53 AM36.0 °F25.0 °F64 %30.19 in10.0 miWest (260°)3.5 mphOvercast
12:53 PM37.0 °F25.0 °F62 %30.15 in10.0 miWNW (290°)6.9 mphOvercast
1:53 PM37.0 °F26.1 °F65 %30.14 in10.0 miNW (310°)6.9 mphOvercast
2:53 PM37.9 °F26.1 °F62 %30.13 in10.0 miNW (310°)8.1 mphOvercast
3:53 PM37.0 °F27.0 °F67 %30.14 in10.0 miNW (310°)5.8 mphOvercast
4:53 PM36.0 °F27.0 °F70 %30.15 in10.0 miNW (320°)4.6 mphOvercast
5:53 PM35.1 °F27.0 °F72 %30.15 in10.0 miCalmOvercast
6:53 PM35.1 °F26.1 °F70 %30.14 in10.0 miCalmOvercast
7:53 PM34.0 °F26.1 °F73 %30.15 in10.0 miNNE (20°)4.6 mphOvercast
8:53 PM30.9 °F26.1 °F82 %30.15 in10.0 miCalmOvercast
9:53 PM32.0 °F25.0 °F75 %30.14 in10.0 miCalmOvercast
10:53 PM35.1 °F24.1 °F64 %30.11 in10.0 miWest (260°)4.6 mphOvercast
11:53 PM32.0 °F25.0 °F75 %30.12 in10.0 miNorth (360°)3.5 mphOvercast
Hourly data recorded from KBTM, located miles away from Butte - Moulton Reservoir, Montana







STORIES FROM OUR PARTNERS